Flag for U.S.A. Weather past 2 weeks in Manassas, Virginia, U.S.A.

Now
23 °F

Clear.


Feels Like: 14 °F
Forecast: 24 / 48 °F
Wind: 8 mph from Northwest

Location: Manassas Municipal

Current Time: Mar 29, 2015 at 6:09:27 AM

Latest Report: Mar 29, 2015 at 5:35 AM


Visibility: 10 mi

Pressure: 30.34 "Hg

Humidity: 58%

Dew point: 10 °F

Location of ManassasLocation

Historic Weather in Manassas — Graph

°F

Manassas temperature yesterday

Maximum temperature yesterday: 37 °F (at 12:35 AM)
Minimum temperature yesterday: 27 °F (at 10:35 PM)
Average temperature yesterday: 33 °F

Past Weeks' High & Low Weather Summary

 TemperatureHumidityPressure
High75 °F (Mar 26, 4:45 PM)100% (Mar 14, 4:55 AM)30.40 "Hg (Mar 14, 4:55 AM)
Low25 °F (Mar 25, 5:15 AM)17% (Mar 18, 3:45 PM)29.60 "Hg (Mar 26, 5:45 PM)
Average42 °F68%30.08 "Hg
* Reported Mar 14 4:15 AM — Mar 29 4:55 AM, Manassas, Weather by CustomWeather, © 2015

Note: Actual official high and low records may vary slightly from our data, if they occured in-between our weather recording intervals... More about our weather records

Advertising

Manassas weather history for previous 24 hours

 ConditionsComfort  
Time TempWeatherWind HumidityBarometerVisibility
4:55 AM
Sun, Mar 29
25 °FClear.8 mph54%30.33 "Hg10 mi
4:35 AM25 °FClear.6 mph54%30.32 "Hg10 mi
4:15 AM25 °FClear.7 mph54%30.32 "Hg10 mi
3:55 AM25 °FClear.10 mph54%30.31 "Hg10 mi
3:35 AM25 °FClear.8 mph54%30.31 "Hg10 mi
3:15 AM25 °FClear.7 mph54%30.31 "Hg10 mi
2:55 AM25 °FClear.12 mph54%30.30 "Hg10 mi
2:35 AM25 °FClear.8 mph54%30.31 "Hg10 mi
2:15 AM27 °FClear.12 mph50%30.30 "Hg10 mi
1:55 AM27 °FClear.9 mph50%30.30 "Hg10 mi
1:35 AM27 °FClear.8 mph54%30.29 "Hg10 mi
1:15 AM27 °FClear.9 mph54%30.29 "Hg10 mi
12:55 AM28 °FClear.9 mph47%30.28 "Hg10 mi
12:35 AM27 °FClear.8 mph54%30.28 "Hg10 mi
12:15 AM27 °FClear.9 mph54%30.28 "Hg10 mi
11:35 PM
Sat, Mar 28
27 °FClear.5 mph54%30.27 "Hg10 mi
11:15 PM27 °FClear.7 mph54%30.26 "Hg10 mi
10:55 PM27 °FClear.5 mph54%30.25 "Hg10 mi
10:35 PM27 °FClear.7 mph50%30.25 "Hg10 mi
9:50 PM28 °FClear.7 mph47%30.24 "Hg10 mi
6:45 PM34 °FPartly sunny.21 mph35%30.14 "Hg10 mi
5:45 PM36 °FPartly sunny.21 mph32%30.10 "Hg10 mi
4:45 PM36 °FPartly sunny.20 mph35%30.09 "Hg10 mi
3:45 PM34 °FPartly sunny.22 mph38%30.07 "Hg10 mi
2:45 PM36 °FPartly sunny.16 mph35%30.05 "Hg10 mi
1:45 PM36 °FPassing clouds.17 mph38%30.05 "Hg10 mi
12:45 PM34 °FPassing clouds.23 mph38%30.04 "Hg10 mi
11:45 AM32 °FSunny.22 mph44%30.05 "Hg10 mi
10:50 AM32 °FSunny.15 mph44%30.04 "Hg10 mi
9:50 AM30 °FSunny.20 mph47%30.04 "Hg10 mi
8:45 AM30 °FSunny.16 mph47%30.02 "Hg10 mi
6:55 AM28 °FClear.23 mph59%29.97 "Hg10 mi
6:15 AM30 °FOvercast.17 mph64%29.95 "Hg10 mi
Weather by CustomWeather, © 2015

See weather overviewHow to use our weather pages